Location: K�ln
(50.9455°N, 6.9544°E)
Time: 11:29:01
(UTC+01:00)

ISS - Pass Details

Date: 12 January 2018
Orbit: 402 x 407 km, 51.6° (Epoch: 22 January)

Event Time Altitude Azimuth Distance (km) Brightness Sun altitude
Exits shadow 06:23:47 41° 201° (SSW) 602 -3.1 -19.2°
Drops below altitude 10° 06:26:47 10° 135° (SE) 1,464 -0.2 -18.7°
Sets 06:28:55 0° 128° (SE) 2,322 1.2 -18.4°
